Location: Boiro
(42.6475°N, 8.8834°W)
Time: 04:52:37
(UTC+01:00)

Transit 4A - Pass Details

Date: 03 December 2021
Orbit: 864 x 980 km, 66.8° (Epoch: 17 January)

Event Time Altitude Azimuth Distance (km) Brightness Sun altitude
Exits shadow 05:54:56 76° 51° (NE) 999 8.0 -31.1°
Maximum altitude 05:55:01 76° 58° (ENE) 999 8.0 -31.1°
Drops below altitude 10° 06:01:23 10° 144° (SE) 2,719 10.8 -29.9°
Sets 06:03:58 0° 146° (SE) 3,668 11.5 -29.5°
